Regional Weather Roundup
Issued by NWS

Home | Current Version | Previous Version | Graphics & Text | Print | Product List | Glossary On
Versions: 1 2 3 4 5 6 7 8 9 10 11 12 13 14 15 16 17 18 19 20 21 22 23 24 25 26 27 28 29 30 31 32 33 34 35 36 37 38 39 40 41 42 43 44 45 46 47 48 49 50
000
ASUS45 KSLC 301310
RWRUT

UTAH REGIONAL WEATHER ROUNDUP
NATIONAL WEATHER SERVICE SALT LAKE CITY UT
700 AM MDT SUN AUG 30 2015

UTZ001>011-023>025-301400-

NORTHERN UTAH

CITY           SKY/WX    TMP DP  RH WIND       PRES   REMARKS
BRIGHAM CITY   MOCLDY    73  42  32 NW8       29.96R
HILL AFB       CLOUDY    71  51  48 E3        29.99R
LOGAN          CLEAR     65  48  54 NW6       29.97S
OGDEN          CLOUDY    71  50  47 W7        29.96R
PROVO AIRPORT  NOT AVBL
SALT LAKE CITY MOCLDY    80  45  28 NW5       29.95R
VERNAL         PTCLDY    61  38  42 W7        30.09R
WENDOVER       CLOUDY    75  39  27 NW7       29.97R
HEBER CITY     MOCLDY    66  50  55 S3        30.07R
WEST JORDAN    PTCLDY    77  46  33 S15       29.98R

$$

UTZ012>022-026-027-301400-

SOUTHERN/CENTRAL UTAH

CITY           SKY/WX    TMP DP  RH WIND       PRES   REMARKS
BLANDING       CLEAR     60  40  47 CALM      30.28R
BRYCE CANYON   CLEAR     50  44  80 CALM      30.30R
CEDAR CITY     CLEAR     68  47  46 S7        30.11S
DELTA          MOCLDY    71  44  37 S8        30.03R
HANKSVILLE     MOCLDY    64  45  48 CALM      30.06R
MILFORD        PTCLDY    64  47  53 SW12      30.05R
MOAB/CYNLANDS  CLEAR     67  33  28 E3        30.05R
PRICE          MOCLDY    64  50  60 NE5       30.13R
ST GEORGE      PTSUNNY   79  52  38 SE5       29.95R
KANAB          CLEAR     61  54  77 CALM      30.18R

$$

REGIONAL REPORTS     COLORADO/ARIZONA

CITY           SKY/WX    TMP DP  RH WIND       PRES   REMARKS
CRAIG, CO      CLEAR     46  40  79 CALM      30.20R
GRAND JUNCTION CLEAR     59  41  51 E7        30.10R
RIFLE          CLEAR     51  43  74 SE3       30.19R
MONTROSE       PTCLDY    58  42  55 S8        30.21S
CORTEZ         CLOUDY    57  47  69 CALM      30.23R
PAGE, AZ       CLEAR     77  49  37 SW5       30.06R
GRAND CANYON   CLEAR     48  43  82 CALM      30.27R
KINGMAN        CLEAR     72  55  55 E6        30.00R
FLAGSTAFF      CLEAR     51  48  89 CALM      30.32R

$$

REGIONAL REPORTS    NEVADA/IDAHO/WYOMING

CITY           SKY/WX    TMP DP  RH WIND       PRES   REMARKS
LAS VEGAS, NV  PTCLDY    86  43  22 S9        29.83R
ELY            PTCLDY    63  34  33 S13       30.11S
ELKO           CLEAR     54  40  59 W6        30.07R
POCATELLO, ID  CLEAR     63  47  55 S10       30.01S
BURLEY         PTCLDY    56  49  77 W5        29.98R
EVANSTON, WY   MOCLDY    65  41  41 SW9       30.15R
ROCK SPRINGS   PTCLDY    66  33  29 S7        30.13R
KEMMERER       PTCLDY    61  37  41 SW12      30.17R

$$


USA.gov is the U.S. government's official web portal to all federal, state and local government web resources and services.